• Join FlightAware (Why Join?)
  • Login
  • US Flag 
02:38AM EST


 

Airport Tracker/Info


-or-


 

Live Flight TrackerFlight Track Log ✈ UAL4274 ✈ 21-Apr-2013 ✈ KIAH - KICT

Flight Track Log - Related Links

Times and Time Zones

All times are in EDT time to prevent confusion due to time zone crossing. See the UAL4274 flight status page for this flight to view local times or setup timezone preferences in your user account.

Time Position Orientation Groundspeed Altitude Reporting Facility
EDT Latitude Longitude Course Direction KTS MPH feet Rate Location/Type
10:00AM 29.9769 -95.3031 337° Northwest 232 267 500  Level Houston Center
10:01AM 30.0061 -95.2778 37° Northeast 203 234 2,100 1,735 Climbing Houston Center
10:02AM 30.0300 -95.2872 341° North 227 261 2,900 2,149 Climbing Houston Center
10:02AM 30.0756 -95.3033 343° North 255 293 4,500 2,710 Climbing Houston Center
10:03AM 30.1075 -95.3239 331° Northwest 251 289 5,700 2,400 Climbing Houston Center
10:03AM 30.1322 -95.3472 321° Northwest 264 304 6,700 2,164 Climbing Houston Center
10:04AM 30.1706 -95.3744 328° Northwest 265 305 7,900 2,165 Climbing Houston Center
10:05AM 30.2339 -95.4222 327° Northwest 276 318 10,200 1,707 Climbing Houston Center
10:06AM 30.5149 -95.6408 337° Northwest  Level FlightAware Approximate
10:06AM 30.3047 -95.4767 326° Northwest 301 346 11,400  Level Houston Center
10:07AM 30.3825 -95.5369 326° Northwest 329 379 13,100 1,721 Climbing Houston Center
10:08AM 30.4606 -95.5939 328° Northwest 333 383 14,900 1,659 Climbing Houston Center
10:09AM 30.5378 -95.6547 326° Northwest 337 388 16,500 1,366 Climbing Houston Center
10:10AM 30.6261 -95.7014 336° Northwest 347 399 17,700 1,463 Climbing Houston Center
10:11AM 30.7186 -95.7500 336° Northwest 344 396 19,500 1,756 Climbing Houston Center
10:12AM 30.8033 -95.7953 335° Northwest 338 389 21,300 1,805 Climbing Houston Center
10:13AM 30.9036 -95.8478 336° Northwest 330 380 23,200 1,561 Climbing Houston Center
10:14AM 30.9869 -95.8933 335° Northwest 330 380 24,500 1,171 Climbing Houston Center
10:15AM 31.0719 -95.9394 335° Northwest 333 383 25,600 1,024 Climbing Houston Center
10:16AM 31.1611 -95.9822 338° Northwest 344 396 26,600 1,000 Climbing Houston Center
10:16AM 31.1908 -95.9928 343° North 328 377 26,900 1,013 Climbing Fort Worth Center
10:17AM 31.2808 -96.0278 342° North 340 391 27,900 1,000 Climbing Fort Worth Center
10:18AM 31.3731 -96.0631 342° North 345 397 28,900 1,000 Climbing Fort Worth Center
10:19AM 31.4611 -96.0983 341° North 345 397 29,900 1,000 Climbing Fort Worth Center
10:20AM 31.5556 -96.1333 342° North 351 404 30,900 1,150 Climbing Fort Worth Center
10:21AM 31.6456 -96.1689 341° North 343 395 32,200 1,250 Climbing Fort Worth Center
10:22AM 31.7358 -96.2042 342° North 350 403 33,400 900 Climbing Fort Worth Center
10:23AM 31.8258 -96.2447 339° North 345 397 34,000 300 Climbing Fort Worth Center
10:24AM 31.9075 -96.2753 342° North 351 404 34,000  Level Fort Worth Center
10:25AM 32.0122 -96.3133 343° North 368 423 34,000  Level Fort Worth Center
10:26AM 32.1086 -96.3514 342° North 373 429 34,000  Level Fort Worth Center
10:27AM 32.2050 -96.3919 340° North 367 422 34,000  Level Fort Worth Center
10:28AM 32.3056 -96.4278 343° North 372 428 34,000  Level Fort Worth Center
10:29AM 32.4019 -96.4636 343° North 367 422 34,000  Level Fort Worth Center
10:30AM 32.5003 -96.5019 342° North 367 422 34,000  Level Fort Worth Center
10:31AM 32.6133 -96.5453 342° North 372 428 34,000  Level Fort Worth Center
10:32AM 32.7181 -96.5861 342° North 384 442 34,000  Level Fort Worth Center
10:33AM 32.8183 -96.6247 342° North 384 442 34,000  Level Fort Worth Center
10:34AM 32.9208 -96.6636 342° North 384 442 34,000  Level Fort Worth Center
10:35AM 33.0256 -96.7047 342° North 384 442 34,000  Level Fort Worth Center
10:36AM 33.1300 -96.7436 343° North 384 442 34,000  Level Fort Worth Center
10:37AM 33.2347 -96.7850 342° North 384 442 34,000  Level Fort Worth Center
10:38AM 33.3392 -96.8267 342° North 384 442 34,000  Level Fort Worth Center
10:39AM 33.4439 -96.8658 343° North 384 442 34,000  Level Fort Worth Center
10:40AM 33.5442 -96.9075 341° North 379 436 34,000  Level Fort Worth Center
10:41AM 33.6467 -96.9444 343° North 379 436 34,000  Level Fort Worth Center
10:42AM 33.7469 -96.9839 342° North 384 442 34,000  Level Fort Worth Center
10:43AM 33.8492 -97.0258 341° North 384 442 34,000  Level Fort Worth Center
10:44AM 33.9517 -97.0631 343° North 378 435 34,000  Level Fort Worth Center
10:45AM 34.0561 -97.1078 340° North 390 449 34,000  Level Fort Worth Center
10:46AM 34.1439 -97.1475 339° North 381 438 34,000  Level Fort Worth Center
10:47AM 34.2461 -97.1847 343° North 381 438 34,000  Level Fort Worth Center
10:48AM 34.3486 -97.2247 342° North 381 438 34,000  Level Fort Worth Center
10:49AM 34.4486 -97.2625 343° North 381 438 34,000  Level Fort Worth Center
10:50AM 34.5467 -97.3000 343° North 381 438 34,000  Level Fort Worth Center
10:51AM 34.6469 -97.3378 343° North 381 438 34,000  Level Fort Worth Center
10:52AM 34.7492 -97.3781 342° North 381 438 34,000  Level Fort Worth Center
10:53AM 34.8536 -97.4186 342° North 386 444 34,000  Level Fort Worth Center
10:54AM 34.9558 -97.4567 343° North 386 444 34,000  Level Fort Worth Center
10:56AM 35.1250 -97.5200 343° North 386 444 34,000  Level Kansas City Center
10:57AM 35.2292 -97.5600 343° North 388 447 34,000  Level Kansas City Center
10:58AM 35.3350 -97.6003 343° North 393 452 34,000  Level Kansas City Center
10:59AM 35.4489 -97.5858 North 420 483 34,000  Level Kansas City Center
11:00AM 35.5864 -97.5475 13° North 416 479 34,000  Level Kansas City Center
11:01AM 35.7011 -97.5153 13° North 417 480 34,000  Level Kansas City Center
11:02AM 35.8147 -97.4836 13° North 417 480 34,000  Level Kansas City Center
11:03AM 35.9289 -97.4517 13° North 417 480 34,000  Level Kansas City Center
11:04AM 36.0436 -97.4200 13° North 420 483 34,000 -532 Level Kansas City Center
11:05AM 36.1583 -97.3878 13° North 422 486 32,900 -1,694 Descending Kansas City Center
11:06AM 36.2722 -97.3572 12° North 420 483 30,500 -2,371 Descending Kansas City Center
11:07AM 36.3869 -97.3239 13° North 422 486 28,000 -2,661 Descending Kansas City Center
11:08AM 36.5300 -97.2839 13° North 433 498 25,000 -2,628 Descending Kansas City Center
11:09AM 36.6500 -97.2531 12° North 440 506 22,700 -2,274 Descending Kansas City Center
11:11AM 36.7639 -97.2200 13° North 426 490 20,300 -2,323 Descending Kansas City Center
11:12AM 36.8642 -97.1919 13° North 408 470 17,900 -2,160 Descending Kansas City Center
11:13AM 36.9711 -97.1614 13° North 398 458 15,800 -2,471 Descending Kansas City Center
11:13AM 37.0300 -97.1439 13° North 394 453 14,400 -2,852 Descending Kansas City Center
11:14AM 37.0994 -97.1258 12° North 396 456 12,900 -2,118 Descending Kansas City Center
11:15AM 37.2036 -97.1072 North 378 435 10,800 -1,926 Descending Kansas City Center
11:15AM 37.2361 -97.1219 340° North 368 423 10,300 -787 Descending Kansas City Center
11:16AM 37.2942 -97.1608 332° Northwest 358 412 10,000 -300 Descending Kansas City Center
11:16AM 37.3222 -97.1847 326° Northwest 350 403 10,000 -98 Level Kansas City Center
11:17AM 37.3731 -97.2192 332° Northwest 328 377 9,900 -448 Descending Kansas City Center
11:17AM 37.4017 -97.2433 326° Northwest 289 333 9,500 -844 Descending Kansas City Center
11:18AM 37.4422 -97.2736 329° Northwest 296 341 9,000 -971 Descending Kansas City Center
11:18AM 37.4814 -97.3047 328° Northwest 285 328 8,400 -984 Descending Kansas City Center
11:19AM 37.5111 -97.3256 331° Northwest 289 333 8,000 -1,034 Descending Kansas City Center
11:19AM 37.5506 -97.3467 337° Northwest 285 328 7,400 -1,143 Descending Kansas City Center
11:20AM 37.6000 -97.3406 North 287 330 6,800 -1,235 Descending Kansas City Center
11:20AM 37.6397 -97.3353 North 275 316 6,000 -1,500 Descending Kansas City Center
11:21AM 37.6750 -97.3275 10° North 280 322 5,300 -1,455 Descending Kansas City Center
11:21AM 37.7194 -97.3125 15° North 272 313 4,400 -1,333 Descending Kansas City Center
11:22AM 37.7461 -97.3208 346° North 277 319 3,900 -1,082 Descending Kansas City Center
11:22AM 37.7581 -97.3619 290° West 209 241 3,300 -787 Descending Kansas City Center
11:23AM 37.7475 -97.3803 234° Southwest 217 250 3,100 -581 Descending Kansas City Center
11:23AM 37.7250 -97.3883 196° South 122 140 2,700 -686 Descending Kansas City Center